[[{"header":{"parameterUnit":"m.s-1","parameterCategory":1,"la1":30.2991,"la2":30.254,"lo1":-89.0895,"lo2":-89.0444,"dy":0.0017,"dx":0.0017,"nx":28,"ny":28,"refTime":"2024-04-13T21:00:00:Z","depth":0,"parameterNumber":2,"parameterNumberName":"U-component_of_WINDS"},"data":[0,0,0,0,0,0,0,0,0,0,0,0,0,0,0,0,0,0,0,0,0,0,0,0,0,0,0,0,0,0,0,0,0,0,0,0,0,0,0,0,0,0,0,0,0,0,0,0,0,0,0,0,0,0,0,0,0,0,-0.0197,-0.0196,0,-0.011,-0.0109,-0.0108,-0.0102,-0.0103,-0.0104,-0.0104,-0.0015,-0.0012,-0.0008,0,0,0,0,0,0,0,0,0,0,0,0,0,-0.0356,-0.0353,-0.0197,-0.0196,-0.0195,-0.011,-0.0109,-0.0108,-0.0101,-0.0103,-0.0104,-0.0105,-0.0016,-0.0012,-0.0008,0,0,0,0,0,0,0,0,0,0,0,0,0,-0.028,-0.0352,-0.0197,-0.0181,-0.0179,-0.011,-0.0109,-0.0107,-0.0101,-0.0103,-0.0104,-0.0105,-0.0017,-0.0012,-0.0008,0.0051,0,0,0.0007,0.001,0,0,0,0,0,0,0,0,-0.0284,-0.0274,-0.0185,-0.0182,-0.018,-0.0118,-0.0132,-0.0054,-0.0101,-0.0131,-0.0104,-0.0106,-0.0048,-0.0041,-0.0021,0.0056,0.0059,0.0008,0.0011,0.0013,0.0014,0,0,0,0,0,0,0,-0.0289,-0.0278,-0.0162,-0.0183,-0.018,-0.0178,-0.0169,-0.0117,-0.0082,-0.0128,-0.0128,-0.0117,-0.0047,-0.0026,-0.0019,0.0061,0.0008,0.0012,0.0015,0.0017,0.0191,0.0192,0,0,0,0,0,0,-0.0298,-0.0282,-0.0165,-0.016,-0.0236,-0.0174,-0.0164,-0.0136,-0.0083,-0.0076,-0.0116,-0.0117,-0.0034,-0.0025,-0.0016,0.0057,0.0013,0.0017,0.002,0.0189,0.0191,0.0193,0,0,0,0,0,0,-0.0301,-0.0287,-0.0169,-0.0221,-0.0205,-0.017,-0.0139,-0.0134,-0.0113,-0.0074,-0.0068,-0.0101,-0.0034,-0.0023,0.0035,0.006,0.002,0.0024,0.0187,0.0189,0.0192,0.0202,0,0,0,0,0,0,-0.0306,-0.0289,-0.0266,-0.022,-0.0203,-0.012,-0.0138,-0.0131,-0.0105,-0.0105,-0.0058,-0.0052,-0.0035,0.0027,0.0039,0.0066,0.0028,0.0185,0.0188,0.0191,0.02,0.0205,0.0209,0,0,0,0,0,-0.0312,-0.0266,-0.0265,-0.0251,-0.0174,-0.0118,-0.0108,-0.009,-0.0103,-0.008,-0.0054,-0.0053,0.0055,0.0033,0.0047,0.0075,0.0183,0.0187,0.0191,0.0198,0.0204,0.0209,0,0,0,0,0,0,-0.031,-0.026,-0.0258,-0.0197,-0.0162,-0.0117,-0.0088,-0.0084,-0.0044,-0.0047,-0.0025,-0.0015,0.0042,0.0065,0.0039,0.0135,0.0118,0.0125,0.0118,0.0124,0.0129,0.0122,0.0032,0,0,0,0,0,-0.0303,-0.0262,-0.0221,-0.0171,-0.0153,-0.0123,-0.0099,-0.0087,-0.005,-0.0035,-0.0006,0.003,0.0072,0.01,0.0141,0.0203,0.0213,0.0229,0.0234,0.0238,0.0243,0.0278,0.0285,0.0205,0.0205,0.0205,0,0,-0.0287,-0.0255,-0.023,-0.0169,-0.0141,-0.0099,-0.0111,-0.0066,-0.0035,-0.0029,0.0027,0.005,0.0092,0.0152,0.018,0.0172,0.0268,0.0242,0.0245,0.0249,0.0282,0.029,0.0296,0.0207,0.0207,0.0207,0,0,-0.0237,-0.0209,-0.0164,-0.0135,-0.0092,-0.0073,-0.0062,-0.0018,-0.0002,0.0054,0.006,0.0098,0.017,0.0199,0.0224,0.0285,0.0288,0.0298,0.0322,0.0356,0.0362,0.0368,0.0389,0.0397,0.0304,0.0304,0.0304,0,-0.0223,-0.016,-0.0141,-0.0097,-0.007,-0.0062,-0.0017,0.001,0.0065,0.0083,0.0074,0.0165,0.0194,0.026,0.0275,0.0295,0.0308,0.0293,0.0359,0.0365,0.0371,0.0392,0.04,0.0305,0.0304,0.0304,0.0304,0,-0.0145,-0.0102,-0.007,-0.0018,0.0012,0.0057,0.0083,0.0111,0.012,0.014,0.0198,0.0233,0.0281,0.0298,0.0307,0.0366,0.036,0.0355,0.0338,0.0379,0.0399,0.0407,0.0306,0.0306,0.0305,0.0305,0,0,-0.0093,-0.003,-0.0019,0.0004,0.0053,0.0087,0.0132,0.0179,0.0203,0.0241,0.0279,0.034,0.0336,0.0363,0.0376,0.0406,0.0452,0.0397,0.0398,0.0406,0.0519,0.0522,0.0531,0.0454,0.0455,0.0457,0.0515,0,-0.0038,0.0043,0.0062,0.0131,0.0171,0.018,0.0219,0.0253,0.0274,0.0311,0.0334,0.0377,0.0368,0.0385,0.0414,0.044,0.0475,0.0436,0.049,0.0491,0.0478,0.0542,0.0545,0.0599,0.0523,0.0525,0.0526,0,0.0037,0.0076,0.0149,0.0192,0.021,0.0245,0.029,0.0326,0.0364,0.0377,0.0408,0.0418,0.0466,0.0447,0.0513,0.0486,0.0509,0.0525,0.0527,0.0533,0.0511,0.0548,0.0616,0.0624,0.0538,0.0537,0.0536,0,0.0067,0.0138,0.0191,0.0211,0.0263,0.0288,0.031,0.0348,0.0375,0.0414,0.0432,0.0476,0.05,0.0534,0.0556,0.054,0.062,0.0603,0.0632,0.0631,0.0648,0.0647,0.072,0.0664,0.0664,0.0663,0.0663,0,0.0126,0.0171,0.0206,0.0238,0.0288,0.0309,0.0358,0.0381,0.0415,0.0452,0.0462,0.0497,0.0523,0.0562,0.0579,0.0631,0.0642,0.0654,0.0657,0.0652,0.0651,0.0667,0.0664,0.0666,0.0665,0.0665,0.0664,0,0.0168,0.0194,0.0252,0.0296,0.0308,0.0343,0.0381,0.0413,0.0434,0.0481,0.0494,0.0527,0.0572,0.0597,0.0655,0.0666,0.0724,0.0726,0.0711,0.0713,0.074,0.0737,0.0827,0.084,0.0775,0.0776,0.0776,0,0.0204,0.0238,0.0287,0.0312,0.0335,0.0377,0.0404,0.0427,0.0455,0.0502,0.0529,0.0575,0.0613,0.0686,0.0715,0.0759,0.0762,0.0791,0.0769,0.0763,0.0762,0.076,0.0763,0.0794,0.0795,0.0795,0.0796,0,0.0264,0.0275,0.0315,0.0359,0.0392,0.0428,0.0463,0.0483,0.0512,0.0543,0.059,0.062,0.0679,0.0724,0.0771,0.0794,0.08,0.0803,0.0812,0.0806,0.0796,0.0801,0.0721,0.08,0.08,0.0799,0.0799,0.0799,0.0304,0.0335,0.0374,0.0418,0.0447,0.048,0.0512,0.0537,0.0576,0.0626,0.0637,0.0686,0.0725,0.0788,0.0813,0.0852,0.0846,0.0859,0.0862,0.0865,0.0866,0.079,0.086,0.086,0.086,0.086,0.086,0,0.0364,0.039,0.043,0.0479,0.0514,0.0516,0.0556,0.0584,0.0628,0.0663,0.0701,0.0755,0.0799,0.0832,0.0878,0.0903,0.0906,0.0914,0.0912,0.0917,0.0869,0.0856,0.091,0.091,0.091,0.091,0.091,0.091,0.04,0.0452,0.0468,0.0535,0.056,0.0609,0.0631,0.0661,0.069,0.075,0.0787,0.0808,0.0842,0.0891,0.0932,0.094,0.0956,0.0963,0.0972,0.0926,0.0921,0.0915,0.0904,0.0967,0.0967,0.1017,0.1018,0.1018]},{"header":{"parameterUnit":"m.s-1","parameterCategory":1,"la1":30.2991,"la2":30.254,"lo1":-89.0895,"lo2":-89.0444,"dy":0.0017,"dx":0.0017,"nx":28,"ny":28,"refTime":"2024-04-13T21:00:00:Z","depth":0,"parameterNumber":3,"parameterNumberName":"V-component_of_WINDS"},"data":[0,0,0,0,0,0,0,0,0,0,0,0,0,0,0,0,0,0,0,0,0,0,0,0,0,0,0,0,0,0,0,0,0,0,0,0,0,0,0,0,0,0,0,0,0,0,0,0,0,0,0,0,0,0,0,0,0,0,4.743,4.7432,0,4.7624,4.7626,4.7628,4.7594,4.759,4.7587,4.7584,4.7782,4.779,4.7799,0,0,0,0,0,0,0,0,0,0,0,0,0,4.7029,4.7036,4.743,4.7432,4.7435,4.7623,4.7626,4.7629,4.7595,4.759,4.7586,4.7582,4.7779,4.7789,4.7799,0,0,0,0,0,0,0,0,0,0,0,0,0,4.7211,4.7039,4.7429,4.744,4.7443,4.7623,4.7626,4.7629,4.7595,4.759,4.7585,4.758,4.7776,4.7788,4.7801,4.7982,0,0,4.784,4.7845,0,0,0,0,0,0,0,0,4.72,4.7226,4.7436,4.744,4.7443,4.7579,4.7557,4.7747,4.7597,4.7538,4.7584,4.7578,4.7719,4.7736,4.7783,4.7991,4.7999,4.7841,4.7848,4.7854,4.7857,0,0,0,0,0,0,0,4.7188,4.7217,4.7506,4.7439,4.7444,4.7435,4.7455,4.7593,4.7654,4.7542,4.754,4.7564,4.772,4.7771,4.7788,4.8002,4.784,4.7852,4.7859,4.7864,4.8367,4.8373,0,0,0,0,0,0,4.7172,4.7207,4.75,4.7512,4.7307,4.7447,4.7469,4.7541,4.7653,4.7665,4.7568,4.7561,4.7752,4.7773,4.7795,4.8014,4.7854,4.7866,4.7873,4.8362,4.8369,4.8375,0,0,0,0,0,0,4.7164,4.7199,4.7492,4.7359,4.7396,4.7459,4.754,4.7547,4.7599,4.7672,4.7683,4.761,4.7749,4.7777,4.7935,4.802,4.7871,4.7883,4.8355,4.8364,4.8372,4.8454,0,0,0,0,0,0,4.7152,4.7196,4.7265,4.7361,4.7403,4.7631,4.7545,4.7555,4.7621,4.7614,4.7714,4.7726,4.7747,4.7917,4.7948,4.8035,4.7893,4.8348,4.8359,4.8369,4.8444,4.8465,4.8482,0,0,0,0,0,4.7138,4.7281,4.7269,4.7305,4.7492,4.7636,4.766,4.7682,4.7628,4.7699,4.7745,4.7722,4.8006,4.7933,4.7968,4.8061,4.8342,4.8356,4.8368,4.8436,4.8461,4.8482,0,0,0,0,0,0,4.7194,4.7294,4.7282,4.746,4.7539,4.7629,4.7719,4.7707,4.7804,4.7793,4.7816,4.7839,4.8,4.8046,4.7963,4.8241,4.8166,4.8187,4.8206,4.823,4.8249,4.8235,4.7903,0,0,0,0,0,4.7227,4.7336,4.7417,4.7566,4.7606,4.7656,4.772,4.7729,4.7813,4.7846,4.7905,4.7987,4.8094,4.8164,4.8267,4.845,4.8471,4.8531,4.8549,4.8565,4.8583,4.8683,4.871,4.8417,4.8417,4.8417,0,0,4.7296,4.7364,4.7432,4.7579,4.7642,4.7754,4.7685,4.7806,4.789,4.7865,4.8019,4.8064,4.8156,4.8328,4.8407,4.8371,4.8668,4.8581,4.8593,4.8603,4.8699,4.8727,4.8751,4.8426,4.8425,4.8423,0,0,4.7481,4.7543,4.7674,4.7738,4.7834,4.7866,4.7897,4.799,4.8019,4.8173,4.8157,4.8256,4.844,4.8507,4.8565,4.8773,4.8756,4.8806,4.8905,4.9003,4.9026,4.9047,4.9122,4.9148,4.8823,4.8823,4.8824,0,4.7555,4.7724,4.7743,4.7867,4.7932,4.7914,4.8047,4.8108,4.8233,4.8278,4.8236,4.8468,4.8528,4.8716,4.8766,4.8814,4.885,4.8796,4.9021,4.9042,4.9061,4.9133,4.9161,4.8829,4.8828,4.8828,4.8827,0,4.781,4.7927,4.8022,4.8143,4.8218,4.8346,4.8385,4.8459,4.8461,4.8497,4.8655,4.8727,4.8844,4.8889,4.8893,4.9077,4.9052,4.9016,4.8941,4.9095,4.9162,4.919,4.8837,4.8835,4.8833,4.8832,0,0,4.8037,4.8166,4.8201,4.8255,4.8359,4.845,4.8576,4.8691,4.8755,4.884,4.8947,4.9103,4.907,4.9136,4.9147,4.9232,4.9393,4.9186,4.9188,4.9222,4.9601,4.9629,4.966,4.9381,4.9387,4.9391,4.9593,0,4.8232,4.8456,4.8476,4.8677,4.8785,4.8769,4.8879,4.8955,4.8991,4.9088,4.9128,4.9239,4.9186,4.9226,4.931,4.9356,4.947,4.9341,4.9481,4.9486,4.946,4.9696,4.9726,4.9913,4.962,4.9624,4.9628,0,4.849,4.8583,4.8795,4.8883,4.893,4.9028,4.9135,4.9228,4.9313,4.9333,4.9406,4.9406,4.9535,4.9455,4.9634,4.9546,4.9604,4.9635,4.9643,4.9658,4.9567,4.9718,4.9974,5.0002,4.967,4.9666,4.9663,0,4.8635,4.8814,4.8964,4.9011,4.9117,4.9187,4.9235,4.9315,4.9382,4.9475,4.9519,4.9625,4.9684,4.9766,4.9794,4.9732,4.9972,4.9893,4.9993,4.9993,5.0046,5.0042,5.0315,5.0081,5.008,5.008,5.0079,0,4.8851,4.8982,4.903,4.9123,4.9268,4.929,4.9433,4.9477,4.9548,4.9648,4.964,4.9734,4.9764,4.9863,4.9886,5.0031,5.0057,5.0077,5.0082,5.0079,5.0077,5.0119,5.0107,5.0087,5.0086,5.0084,5.0083,0,4.9039,4.9077,4.9239,4.9327,4.9352,4.9455,4.953,4.9619,4.9653,4.978,4.9811,4.9865,4.9981,5.0016,5.0157,5.0171,5.0342,5.0334,5.0313,5.0314,5.0412,5.0403,5.0723,5.0766,5.0502,5.0504,5.0507,0,4.9176,4.9276,4.9373,4.944,4.9491,4.9598,4.9667,4.9691,4.9763,4.9867,4.9943,5.0058,5.0152,5.0338,5.039,5.0497,5.0492,5.0597,5.0508,5.0502,5.0495,5.049,5.05,5.0614,5.0617,5.0619,5.0621,0,4.9414,4.9428,4.9527,4.9633,4.9715,4.98,4.9882,4.9936,4.9973,5.0054,5.0173,5.0245,5.0388,5.0502,5.0611,5.0659,5.0647,5.0648,5.0677,5.0676,5.066,5.0671,5.036,5.0641,5.0639,5.0638,5.0637,5.0636,4.9582,4.967,4.9752,4.9863,4.9927,5.0003,5.0091,5.0136,5.0235,5.0354,5.0362,5.0491,5.0572,5.0716,5.077,5.0871,5.0841,5.0882,5.0893,5.0904,5.0912,5.0643,5.0891,5.089,5.089,5.0889,5.0889,0,4.9821,4.9873,4.9974,5.0088,5.0176,5.0155,5.0244,5.0318,5.0432,5.0509,5.0601,5.0737,5.0848,5.0908,5.1018,5.1087,5.1084,5.1115,5.1111,5.1123,5.0932,5.0897,5.1116,5.1116,5.1116,5.1116,5.1116,5.1116,4.9955,5.0103,5.0126,5.0306,5.0356,5.0483,5.0535,5.0605,5.0667,5.082,5.0912,5.095,5.102,5.1135,5.1235,5.125,5.1291,5.1326,5.1338,5.1159,5.1136,5.1114,5.1081,5.1335,5.1335,5.152,5.1522,5.1523]}]]